Wind_Speed
7 6 4 4 4 4 5 7 8 8 7 6 6 6 6 6 7 8 9 8 8 9 10 10 9 9 9 9 9 8 7 7 7 7 5 4 4 3 2 3 4 6 6 5 4 2 3 4 4 3 1 2 3 4 6 5 4 5 6 5 4 5 3 2 1 2 4 6 7 7 6 6 7 7 7 7 7 7 7 8 9 10 10 11 11
7 6 5 5 5 5 7 9 9 9 8 6 6 6 6 7 8 9 9 8 9 9 9 11 11 10 10 10 10 9 9 9 8 8 7 5 5 5 4 4 4 5 6 6 5 4 3 3 3 3 2 3 3 3 5 5 4 4 6 5 5 5 4 2 2 2 3 4 5 6 5 5 6 6 6 6 7 7 7 7 8 9 10 10 11
8 6 6 7 6 6 8 10 11 11 10 8 5 5 4 5 7 9 9 10 10 9 9 10 11 10 10 10 11 11 10 9 9 8 7 7 6 6 5 5 5 5 5 6 6 6 5 4 4 4 3 3 3 3 4 5 5 4 6 6 5 6 5 3 3 2 2 3 4 5 5 4 5 5 6 5 6 6 6 6 7 9 9 10 10
7 6 7 8 7 7 8 10 12 13 12 9 6 5 4 4 6 8 9 10 9 9 8 8 9 9 9 10 11 12 11 10 10 9 8 7 7 6 6 6 6 6 5 5 6 6 7 5 5 4 4 3 3 4 3 4 6 5 6 6 5 7 6 4 3 2 2 3 4 5 5 3 4 5 5 4 4 5 6 6 6 7 8 8 9
6 5 6 7 6 6 6 10 14 16 13 10 7 6 6 6 7 9 9 9 8 8 8 7 7 7 7 8 10 11 11 11 11 11 9 7 8 7 7 7 7 8 7 6 5 6 7 7 7 6 5 4 3 4 3 3 4 4 7 6 4 7 8 6 4 4 3 3 3 4 5 3 3 3 4 4 3 3 5 5 6 6 7 7 7
4 3 3 4 5 4 5 8 13 15 12 10 9 8 9 7 8 9 8 8 7 6 6 7 7 6 6 6 8 9 10 12 11 11 10 8 8 8 8 8 8 9 9 8 7 6 7 8 9 7 7 6 4 4 4 4 2 1 5 7 5 6 9 8 6 5 4 4 3 4 5 4 3 2 3 3 3 2 3 5 6 6 6 6 7
1 0 1 3 4 4 5 7 10 14 12 10 9 9 9 7 7 8 6 6 6 6 6 6 6 6 6 6 6 7 9 11 12 11 11 10 9 9 9 8 8 9 9 9 9 8 7 7 9 8 8 8 6 6 5 6 5 2 3 4 4 5 10 11 7 7 6 5 3 4 4 4 4 3 2 2 2 2 3 4 5 5 6 6 6
2 2 1 2 3 3 5 5 9 14 14 11 9 8 7 5 6 5 5 5 4 5 5 4 4 4 6 7 6 6 8 10 11 12 11 11 11 9 9 9 9 9 8 8 9 9 7 7 8 9 10 10 9 8 7 6 6 5 4 3 2 3 8 11 9 8 8 6 4 3 4 4 5 5 4 2 2 2 3 4 4 5 5 6 6
3 2 2 0 2 3 4 4 9 14 13 11 10 9 8 6 4 3 2 3 3 3 2 4 5 5 7 8 6 6 7 8 10 11 11 11 11 10 9 9 9 9 9 8 8 8 8 8 8 9 10 11 11 10 9 8 7 7 7 6 4 3 4 8 9 9 9 8 7 5 4 5 5 5 5 4 1 1 2 3 4 4 5 5 6
3 3 2 1 0 2 3 3 8 14 13 11 10 10 10 8 5 3 2 4 5 5 4 4 5 6 8 9 8 7 6 7 8 9 11 11 11 10 10 10 9 9 9 9 9 9 9 9 9 10 11 11 12 12 11 10 9 9 8 8 8 6 4 5 7 9 10 10 9 8 7 7 7 7 6 5 3 1 2 3 4 4 4 5 5
3 2 2 2 1 1 2 2 4 9 11 11 11 10 9 7 6 7 7 8 9 8 7 5 6 7 8 7 9 10 7 6 7 9 10 10 11 11 11 11 10 10 9 9 9 9 9 9 10 12 13 12 11 11 11 11 10 10 10 10 10 9 7 5 6 8 10 11 11 11 10 9 9 9 8 6 5 3 3 3 4 5 5 5 5
3 2 1 1 1 1 2 1 2 5 6 8 11 11 9 7 7 9 9 10 11 10 8 6 5 7 9 8 10 11 9 7 7 8 9 9 10 11 11 12 12 11 11 10 10 10 9 9 9 11 12 13 12 11 10 11 12 12 12 12 11 12 11 8 6 7 10 12 13 12 12 11 10 11 10 9 7 5 3 4 5 5 6 6 5
3 2 1 1 1 2 3 3 3 4 4 4 7 9 10 9 8 10 10 10 12 11 9 6 3 3 5 9 11 11 10 9 9 9 7 8 9 10 11 12 12 13 12 12 11 11 11 10 10 10 10 11 13 13 13 12 12 13 14 14 13 14 14 13 10 8 9 11 13 13 14 13 12 12 12 11 10 8 6 5 6 6 6 7 6
3 3 2 2 1 1 3 4 5 6 6 5 4 6 8 8 7 8 10 11 11 10 9 6 4 2 1 5 7 9 10 9 9 9 5 5 8 9 11 11 12 13 12 13 13 13 13 12 12 11 11 10 11 13 14 15 14 13 14 16 16 15 16 16 14 12 11 12 14 14 15 15 14 14 13 12 11 11 9 7 7 7 7 8 7
4 4 3 3 2 2 3 3 4 5 6 6 4 4 5 6 6 7 8 10 10 9 9 8 6 3 1 1 3 3 5 6 6 7 6 8 10 10 10 11 12 12 11 13 13 13 13 13 13 13 12 12 11 11 13 15 16 14 14 15 17 17 17 18 18 18 16 15 17 17 16 16 16 15 15 14 13 13 12 10 9 9 8 8 9
5 5 4 4 3 3 4 5 5 4 5 5 4 2 2 3 3 5 7 8 8 7 7 9 9 6 3 1 1 1 1 1 2 4 8 9 10 11 8 8 10 9 10 11 11 12 13 13 14 13 13 13 13 12 12 13 14 15 15 16 17 18 19 20 20 20 20 18 18 19 19 18 17 17 17 17 15 15 15 13 11 10 10 10 10
6 6 6 5 5 5 5 5 6 5 5 5 5 3 1 1 0 2 4 4 4 3 3 5 8 9 6 2 1 1 0 0 0 3 7 7 8 11 10 7 6 6 8 9 9 10 11 11 12 12 13 14 14 14 14 13 14 15 17 18 19 19 20 21 22 22 22 21 19 19 21 21 20 19 18 18 18 16 16 16 13 12 12 12 11
8 8 8 7 7 6 6 6 6 6 6 5 5 4 4 3 3 2 2 2 1 2 2 2 4 7 8 6 4 3 1 1 0 1 4 7 7 8 10 9 6 5 5 6 7 8 8 8 9 10 12 13 14 15 15 16 16 16 16 17 18 18 18 19 21 23 23 24 23 20 19 21 21 21 20 19 19 19 18 18 16 14 13 13 13
8 8 8 8 8 8 7 7 7 7 7 6 6 5 5 5 5 5 4 5 4 1 2 1 1 4 6 7 5 4 3 3 2 1 1 4 6 6 8 8 8 8 7 5 6 6 6 6 7 8 9 10 11 12 14 15 16 17 17 18 19 19 18 17 17 20 22 24 25 23 21 21 21 21 22 21 21 21 21 20 19 17 15 14 14
8 8 9 9 9 9 8 8 8 7 7 7 7 6 7 7 7 6 5 5 6 4 3 3 1 1 2 4 3 3 3 3 1 2 2 2 3 4 6 7 9 9 7 5 5 5 6 7 8 9 9 9 10 10 11 12 13 16 17 19 20 20 20 19 17 18 20 22 24 24 24 23 23 23 22 23 23 23 23 22 21 19 17 15 15
8 9 9 10 10 10 10 9 9 8 8 8 8 8 7 7 7 8 8 7 7 5 4 4 4 3 2 2 2 1 2 3 3 0 2 2 2 2 3 6 7 7 6 6 8 8 9 9 10 10 10 10 10 10 10 10 10 11 13 15 14 14 16 17 18 18 18 20 21 23 25 25 25 24 23 23 24 25 25 24 23 22 19 18 17
8 9 10 10 10 10 10 10 10 9 9 9 9 8 8 8 8 8 8 8 8 8 7 5 5 4 4 4 4 4 2 1 2 3 2 3 4 3 4 5 5 6 8 10 11 11 11 12 12 11 11 11 10 10 10 10 10 10 11 12 9 9 12 13 14 14 15 18 19 21 24 24 24 25 25 24 24 26 27 26 25 24 22 20 19
8 9 9 9 9 9 10 10 10 10 9 9 8 8 8 8 8 8 8 8 7 8 7 6 5 4 5 4 5 5 4 3 3 4 3 3 4 5 6 7 8 9 9 9 9 11 14 15 14 13 12 11 10 10 10 10 10 11 12 12 10 9 10 11 12 12 13 15 18 21 24 25 24 24 25 26 25 26 29 29 28 26 24 23 21
7 8 8 8 8 8 9 9 9 9 9 8 8 8 8 7 7 7 7 7 7 6 6 6 5 4 4 4 4 4 4 4 3 3 3 3 4 5 6 8 9 10 10 10 11 13 15 15 14 13 12 11 10 9 9 9 10 11 12 12 12 12 11 11 12 12 12 13 15 19 23 25 25 25 25 27 27 27 28 30 30 28 25 24 24
7 8 8 7 7 7 8 8 9 9 9 8 8 8 8 8 8 8 7 7 7 6 6 6 5 4 4 3 3 3 3 4 4 3 3 4 5 5 6 7 8 10 12 12 12 12 12 12 12 11 10 9 9 9 8 9 9 9 8 9 12 14 14 12 12 12 13 13 14 16 20 23 25 26 26 26 28 28 29 31 31 30 28 26 26
8 8 9 8 6 7 7 8 8 9 9 8 8 7 7 7 7 7 7 7 7 7 7 6 6 5 4 3 3 3 4 4 4 4 4 4 5 6 7 7 8 10 12 11 11 10 9 9 8 9 9 9 9 8 8 9 9 8 8 8 10 13 15 16 16 16 15 15 16 16 18 22 24 26 27 26 27 29 30 32 32 31 31 29 28
7 8 9 9 7 7 8 8 8 8 8 8 7 7 6 6 6 6 6 6 6 5 5 5 5 4 4 3 3 3 4 4 5 5 5 5 5 6 7 7 6 7 8 9 10 9 8 8 8 8 8 8 8 7 8 9 9 9 9 9 9 11 12 14 15 17 18 18 18 18 19 21 23 25 27 27 27 29 31 32 32 32 33 32 30
8 9 10 10 10 9 8 8 8 8 7 7 6 6 6 5 5 5 5 5 5 4 4 4 4 3 3 3 3 3 3 4 5 5 5 5 6 6 6 6 6 5 5 6 7 7 7 7 7 6 5 6 7 7 8 8 8 8 9 9 10 10 11 10 10 12 15 17 18 19 20 21 22 24 26 27 26 28 31 32 33 34 35 33 31
10 11 12 11 11 11 10 9 9 8 8 7 6 6 6 6 5 5 5 4 4 4 3 3 3 2 3 3 3 3 3 4 4 5 5 5 5 6 6 7 7 6 5 5 5 6 8 8 8 7 5 5 6 6 7 7 7 8 9 10 11 11 12 13 12 11 11 14 16 17 18 19 21 22 24 25 26 27 29 32 33 35 37 35 32
12 13 13 13 13 12 11 11 10 9 8 8 7 7 6 6 6 5 5 4 4 3 3 3 2 2 2 2 3 2 3 4 4 4 5 5 5 6 6 7 7 7 7 6 6 6 8 8 9 8 7 6 7 8 8 8 10 12 11 12 13 13 14 15 16 15 13 13 14 15 15 15 16 17 18 20 23 25 27 30 33 35 37 37 35
15 15 15 15 14 14 13 12 11 10 9 8 7 7 7 6 6 6 5 5 4 3 3 2 2 2 2 2 2 2 3 4 4 4 4 4 5 6 6 7 8 8 9 9 7 7 7 8 9 10 10 10 10 11 11 11 13 14 13 13 15 16 17 17 19 20 18 17 17 17 16 16 16 17 17 17 19 21 22 26 31 35 38 38 38
17 17 16 16 16 16 15 14 13 12 10 9 8 7 6 6 6 6 6 6 5 4 3 2 2 1 1 2 2 2 3 4 4 4 5 5 5 6 6 7 8 8 10 10 9 9 10 11 11 11 11 12 12 12 13 13 13 13 13 14 15 16 17 17 18 19 18 19 20 20 19 19 19 19 19 20 20 20 21 23 28 33 38 39 39
18 18 18 17 18 17 16 16 15 14 12 11 9 8 7 7 7 6 6 6 6 5 4 3 3 1 0 1 2 2 3 4 4 5 5 5 6 6 6 6 8 8 9 11 11 11 12 11 11 11 11 11 12 12 12 12 11 11 12 12 13 14 15 15 16 17 17 17 18 20 20 20 20 20 20 21 21 21 22 23 25 30 36 41 42
19 20 19 19 19 18 18 17 16 15 14 12 11 10 9 9 8 7 7 6 6 5 4 3 3 2 1 1 1 1 2 4 5 6 6 5 7 7 6 7 8 8 9 11 12 12 12 12 11 12 12 12 12 11 11 11 11 12 13 13 13 14 15 15 15 16 16 16 16 17 18 19 19 19 19 20 21 21 23 24 26 28 33 39 43
19 20 20 20 20 19 19 18 18 17 15 14 13 11 11 11 9 9 8 7 6 5 4 3 2 2 1 2 1 1 2 3 4 6 6 6 7 7 8 8 9 10 10 11 12 13 13 13 13 13 12 12 12 12 12 12 13 13 15 16 15 15 15 15 15 16 17 18 17 16 16 16 18 19 19 20 20 22 23 24 26 29 31 34 41
19 21 21 22 22 21 20 19 19 18 17 16 14 13 13 12 11 10 9 8 7 6 5 4 3 2 2 2 2 2 3 3 4 5 5 6 7 8 9 9 9 10 10 11 12 13 14 14 14 14 14 14 13 13 13 13 14 14 15 15 15 15 15 15 16 16 17 18 19 19 17 15 16 18 20 20 20 21 23 24 25 28 30 32 36
20 22 23 23 24 23 22 22 21 19 19 18 16 15 14 13 12 11 10 9 8 7 5 4 3 3 3 3 3 3 3 4 4 5 5 6 8 9 10 10 11 11 11 12 13 14 15 16 16 15 15 15 15 15 14 14 15 14 14 15 15 15 15 15 15 15 16 19 20 22 23 21 17 17 19 20 21 21 21 22 23 25 28 31 33
21 22 24 25 25 25 24 23 22 21 20 19 18 17 15 14 13 11 10 9 8 7 5 4 4 4 4 4 4 4 4 5 5 6 7 8 9 9 10 11 12 12 12 13 14 15 16 17 17 16 15 15 15 15 14 14 14 15 15 15 15 15 15 15 15 15 16 17 17 18 20 20 18 17 17 18 19 20 20 20 21 22 25 28 31
21 23 24 24 25 25 24 23 23 22 21 20 18 17 16 15 13 12 11 9 8 7 6 5 5 4 4 4 4 4 5 5 5 6 7 8 9 10 11 11 11 12 13 14 15 16 17 18 17 16 16 15 14 15 14 13 14 15 15 15 14 13 13 13 13 13 13 14 15 16 17 18 19 21 20 18 18 19 20 19 20 21 22 24 27
22 22 23 23 23 24 25 25 24 22 22 21 19 18 17 15 14 12 11 9 8 7 6 6 5 5 5 5 4 4 5 5 7 7 8 9 10 11 11 11 12 13 14 14 15 16 17 17 17 16 16 15 15 15 14 13 13 14 13 13 13 12 11 12 13 13 13 14 15 15 15 16 18 20 21 20 19 19 19 20 20 21 22 22 24
20 21 22 23 23 23 25 25 24 23 22 20 20 19 17 15 13 12 10 9 8 7 6 5 5 5 4 4 5 5 5 6 7 8 8 10 11 12 12 12 13 14 15 15 15 16 16 17 17 17 16 16 15 15 14 13 12 12 11 12 13 14 14 15 15 15 14 14 15 14 14 14 13 14 15 16 16 16 17 19 20 20 21 22 22
19 19 19 21 22 21 21 23 24 23 21 20 21 20 18 15 12 10 9 8 7 6 6 5 5 4 4 5 6 8 8 8 7 7 9 9 10 12 13 14 14 15 15 16 16 17 17 17 17 17 16 16 15 15 15 15 14 14 13 13 14 14 14 15 15 15 14 15 16 16 14 14 13 13 13 13 13 13 12 13 15 17 19 20 21
16 16 21 24 25 24 22 23 23 21 20 22 23 21 17 14 11 9 8 7 7 6 6 5 4 4 5 6 6 8 10 8 8 10 12 12 11 12 14 15 16 17 18 18 18 17 18 18 18 18 17 18 17 16 17 16 16 15 14 14 14 14 13 13 12 12 10 9 12 15 15 13 13 15 14 12 12 12 12 13 15 16 16 18 19
16 18 22 25 26 26 24 21 18 16 17 21 20 16 13 11 9 8 7 7 7 6 6 5 5 5 6 7 8 8 9 10 11 12 13 12 12 14 15 16 18 20 21 22 22 20 20 19 20 20 19 19 18 17 16 16 16 15 15 15 15 14 15 14 13 13 10 6 9 15 16 14 14 16 16 13 13 14 14 16 18 16 14 15 17
17 18 21 23 24 23 22 21 19 17 16 17 15 12 10 8 7 7 7 7 6 6 6 5 6 7 8 8 9 9 9 11 12 12 11 12 13 15 17 18 19 19 20 22 24 25 25 23 23 22 21 20 20 19 17 16 16 16 16 16 16 16 16 16 16 16 13 10 12 16 17 15 15 16 16 15 14 13 12 15 18 17 14 14 16
17 18 19 21 20 20 21 22 21 18 17 15 14 11 9 7 7 7 7 6 5 5 6 6 7 8 9 9 10 10 11 11 12 12 12 13 15 16 16 17 18 18 19 20 21 24 27 27 27 26 24 23 23 22 19 17 19 20 20 19 18 18 19 20 20 20 18 17 16 17 18 16 14 15 16 15 13 9 9 14 19 18 16 14 16
16 17 17 19 19 19 20 20 18 15 14 14 13 11 9 8 7 7 6 6 5 6 7 8 9 9 10 10 11 12 12 12 12 13 15 16 16 17 17 18 18 19 19 20 20 22 24 26 27 27 25 25 25 24 23 21 21 22 23 23 22 22 22 23 23 23 22 21 20 19 19 17 15 16 16 15 13 8 7 13 19 19 17 15 15
15 16 17 18 19 18 17 16 15 14 14 14 12 10 9 9 7 5 5 5 6 7 8 8 10 10 11 11 12 12 13 13 14 16 17 18 18 18 19 19 19 19 19 19 21 23 25 27 28 28 28 28 26 25 24 23 22 21 21 23 24 23 23 24 24 24 23 21 20 20 20 18 16 16 17 16 15 13 11 13 17 18 17 16 15
16 16 16 17 17 16 16 15 14 12 13 13 11 9 9 8 6 4 4 6 7 8 8 9 10 11 12 13 13 14 15 16 16 17 18 19 18 19 20 20 20 21 21 20 21 23 25 27 28 30 33 34 34 33 32 31 30 26 23 23 23 23 24 23 21 22 22 20 18 19 21 21 18 17 18 17 16 15 14 13 13 16 18 18 15
16 17 17 17 17 17 18 18 14 11 11 11 9 8 8 7 4 4 5 7 8 9 9 10 11 12 13 14 16 17 18 18 18 18 19 19 18 18 20 22 23 24 23 22 22 24 25 26 27 28 30 32 34 36 37 37 38 35 32 29 27 27 28 25 22 22 22 22 20 18 20 22 20 19 20 17 14 14 13 12 11 12 14 13 12
17 17 16 17 18 18 18 18 16 12 10 9 7 7 6 5 4 4 6 8 8 9 11 11 12 13 13 15 17 19 19 18 17 17 18 17 17 18 22 25 26 26 25 24 25 25 25 26 26 26 28 28 29 30 32 33 35 36 36 35 32 32 32 29 26 22 18 18 19 19 21 22 20 20 20 16 12 10 10 8 7 7 6 6 6
Wind_Direction
238 234 230 233 249 256 218 214 226 224 224 226 224 231 234 231 218 205 199 197 202 212 221 218 208 207 217 228 230 229 225 222 219 212 207 200 207 213 184 190 173 157 164 181 193 157 146 169 178 198 203 150 152 161 161 163 172 153 145 150 138 147 185 251 289 2 28 31 28 38 54 70 76 81 84 87 90 86 85 89 91 95 95 92 88
241 236 243 250 255 251 224 215 220 219 216 215 228 241 242 237 222 209 199 196 202 208 220 226 222 214 214 224 230 231 227 222 221 216 215 211 208 210 190 182 185 170 165 175 194 191 171 168 174 191 194 177 191 185 161 162 177 164 160 170 168 165 176 218 246 316 0 18 23 31 45 71 78 82 86 85 90 91 88 86 87 91 93 94 91
241 240 254 262 262 259 243 228 219 218 213 202 219 238 237 236 218 206 201 202 203 202 214 229 230 225 218 222 226 228 227 224 222 219 221 221 218 217 207 189 187 186 173 171 183 194 196 181 172 187 194 186 201 207 179 169 178 169 167 180 194 189 184 195 228 278 327 352 9 20 30 62 77 82 88 87 89 95 97 94 90 90 91 92 91
246 251 260 269 270 261 256 242 220 213 214 200 201 219 215 214 201 198 201 197 194 195 208 229 237 233 226 226 228 228 226 225 225 224 225 228 231 230 225 214 199 193 187 180 173 183 200 200 190 190 200 208 196 205 214 175 170 183 186 190 207 203 196 196 215 249 296 322 346 4 12 43 71 83 92 93 96 102 107 105 99 97 95 93 93
254 254 255 266 270 259 260 253 222 208 210 199 191 200 194 192 186 184 189 187 182 190 203 221 237 237 230 230 232 233 230 228 229 230 231 232 239 242 237 230 220 209 200 196 185 183 192 198 209 208 203 224 217 198 208 169 160 188 195 197 205 203 204 203 211 231 272 298 313 342 353 9 42 75 91 91 95 109 116 118 115 111 108 103 97
253 243 244 260 273 265 258 256 221 203 205 200 194 191 182 181 178 172 178 184 182 194 208 220 235 238 233 231 229 232 233 233 232 233 235 238 244 250 247 240 234 228 218 209 203 198 198 196 207 217 214 225 224 197 196 196 214 211 189 201 210 205 208 207 211 223 247 281 285 311 330 337 355 38 77 87 89 105 122 127 127 126 124 114 104
290 267 257 267 277 265 244 242 211 198 203 202 195 188 184 176 163 164 176 189 200 217 223 228 241 243 239 237 229 227 229 233 235 235 237 242 247 249 249 248 244 239 234 228 215 202 206 208 208 213 218 224 217 206 202 203 227 233 179 198 210 211 210 204 204 215 231 257 266 279 296 312 329 347 17 75 94 103 125 133 135 139 139 127 117
18 35 48 269 272 251 233 221 196 199 204 202 194 180 181 171 151 158 174 189 224 234 228 256 279 276 264 249 230 226 232 234 234 237 239 242 246 248 248 249 249 248 245 244 234 213 206 215 221 220 220 225 220 217 217 208 218 218 200 213 217 193 199 199 201 207 221 235 246 265 267 279 305 318 329 0 93 113 135 147 146 146 147 142 138
36 44 67 294 262 241 232 203 198 206 202 193 189 180 176 173 158 146 149 182 243 264 277 322 317 313 304 284 253 232 237 240 233 234 236 237 240 243 245 246 248 251 249 250 249 235 219 212 221 230 231 233 232 228 224 215 215 214 209 221 236 217 190 196 205 209 217 225 232 251 256 257 277 289 303 316 322 135 153 167 162 155 152 152 151
53 58 64 59 177 230 225 196 205 211 204 188 184 188 191 191 190 199 232 235 251 270 281 313 320 316 314 306 288 258 239 240 236 232 232 232 234 238 243 245 246 247 249 251 251 248 238 224 219 225 230 234 238 238 233 224 219 217 215 217 226 237 221 196 204 213 219 225 229 236 246 255 265 272 278 292 295 218 180 191 185 176 165 157 154
56 63 69 75 97 216 223 195 191 197 200 200 199 203 204 202 209 226 244 254 256 259 259 274 302 308 313 306 287 276 261 246 240 233 231 235 237 241 245 245 244 243 245 248 248 248 244 237 229 228 229 227 229 236 239 236 228 220 219 218 221 229 233 221 208 213 220 228 232 233 242 253 259 266 267 268 277 261 211 205 200 195 185 175 165
39 44 71 98 115 167 203 190 145 157 175 200 213 217 218 216 222 232 241 251 253 248 244 253 283 304 315 309 289 283 280 277 271 249 236 243 250 250 251 250 248 245 244 244 245 245 240 239 236 234 237 233 226 227 231 236 237 230 223 219 219 224 230 237 231 215 217 229 236 237 243 251 254 260 264 260 259 257 236 214 209 205 195 190 189
33 39 57 86 147 162 160 156 161 169 165 179 209 218 225 229 233 239 238 237 240 238 233 229 242 281 314 315 302 292 282 276 279 269 249 250 261 263 260 258 255 248 244 242 241 241 238 236 235 235 239 237 229 226 224 227 233 236 234 228 223 223 226 235 242 233 219 224 236 240 241 247 253 255 260 259 252 251 244 225 217 211 202 199 199
55 59 61 53 75 135 130 144 159 170 171 172 191 207 220 225 228 236 234 227 226 228 227 208 191 215 307 321 305 294 281 268 265 269 270 274 285 285 275 268 260 252 248 245 240 238 238 236 235 235 236 238 235 230 226 226 227 232 237 236 233 229 226 230 238 241 235 228 232 241 243 243 247 249 253 256 252 249 246 232 222 216 210 206 202
68 68 68 63 58 64 73 97 127 146 156 161 175 200 216 212 207 222 226 219 213 216 218 200 191 198 161 294 286 291 283 275 264 273 309 319 307 295 282 274 266 256 249 246 242 240 241 239 237 236 236 239 241 237 234 232 230 230 233 238 239 238 234 231 232 236 238 234 230 237 245 245 244 243 244 249 252 250 246 238 225 220 215 211 206
68 70 78 81 78 77 73 73 79 100 124 124 120 146 216 206 204 218 220 215 209 211 213 204 207 207 173 189 259 261 269 276 263 290 311 315 305 301 299 287 275 264 250 245 246 246 245 244 241 239 239 240 240 240 240 238 235 237 241 245 248 248 245 240 237 234 235 236 232 233 240 244 245 243 240 242 248 250 247 241 229 222 219 215 211
69 71 80 88 90 86 83 83 77 77 88 95 96 92 83 81 220 209 200 204 207 215 220 214 218 216 208 202 226 245 288 64 151 295 282 274 292 302 299 293 286 270 252 247 249 250 247 245 240 238 239 240 240 239 240 240 238 238 244 249 253 254 253 249 246 242 239 239 237 233 236 240 242 244 242 240 244 249 249 244 234 225 221 217 214
77 78 82 88 92 91 87 87 85 79 80 86 93 90 79 63 30 39 71 67 143 207 210 218 221 216 223 231 232 236 166 147 227 293 254 252 274 290 287 289 297 292 267 250 248 248 247 247 239 236 239 239 240 240 240 240 239 238 240 245 252 257 256 253 250 248 245 244 242 236 234 238 240 240 240 239 241 244 247 246 240 230 223 221 217
85 84 87 89 91 91 88 87 87 86 85 86 89 85 79 76 59 51 50 45 48 104 147 124 236 216 224 233 234 238 212 203 230 229 240 249 252 274 293 298 301 299 285 263 255 251 249 251 242 236 237 237 238 240 241 241 241 240 238 239 246 251 253 252 247 247 248 246 245 241 235 236 240 239 235 235 238 241 242 244 243 235 226 223 220
89 91 93 93 92 89 86 85 85 85 88 88 87 86 83 81 76 70 68 62 57 65 87 75 53 168 204 231 220 203 198 188 210 241 253 254 237 265 302 312 311 301 287 275 270 261 257 253 248 248 245 240 239 239 242 245 243 241 241 242 242 245 249 249 244 243 246 246 245 244 240 235 237 240 236 233 235 238 240 241 241 238 230 223 221
92 97 99 96 92 89 86 84 82 80 84 87 87 89 88 84 80 78 79 79 72 68 68 55 42 42 27 327 302 257 181 140 106 313 259 265 261 249 281 303 302 285 272 278 275 265 261 255 252 255 251 245 242 242 243 243 243 240 242 247 246 241 243 245 243 242 243 244 241 240 241 237 236 240 240 237 235 236 238 238 237 237 233 224 221
103 105 105 100 95 91 88 85 84 82 83 86 89 89 89 88 85 83 82 82 79 75 71 61 49 34 20 5 353 347 322 175 67 15 338 288 288 282 282 287 280 267 265 269 270 267 264 257 252 253 250 242 239 242 243 240 241 240 240 247 246 237 239 240 239 239 238 238 234 230 235 238 238 237 239 239 236 234 235 236 234 234 232 227 221
122 118 114 108 101 95 92 89 87 85 84 84 86 88 89 90 88 86 84 81 80 79 73 67 61 46 32 21 11 10 357 346 7 1 341 316 307 298 298 296 288 284 277 269 268 269 267 261 253 251 250 244 240 239 239 238 239 240 243 245 239 236 243 240 231 232 235 236 234 227 226 233 237 236 235 236 235 232 234 235 232 229 227 223 221
143 136 132 123 113 106 100 96 92 90 88 85 84 85 87 89 88 86 84 82 80 79 74 67 60 48 38 26 13 13 9 5 5 351 327 315 306 292 295 301 296 292 291 284 275 268 266 261 252 247 245 242 243 239 234 239 240 241 249 251 246 242 241 235 228 232 238 240 238 231 224 226 233 236 236 235 233 230 230 233 231 225 220 216 215
163 156 151 142 128 119 110 104 102 99 96 93 89 86 86 87 88 87 83 82 79 78 76 69 62 51 35 22 10 1 0 359 347 333 324 303 291 288 295 301 297 294 294 288 279 273 266 259 254 251 247 241 243 241 238 245 242 239 247 251 250 245 236 232 234 237 242 242 238 232 226 225 228 234 237 236 234 231 227 229 230 225 222 218 214
178 170 163 157 144 132 122 113 111 109 105 101 95 90 88 87 87 88 84 81 79 77 76 70 62 54 36 14 359 350 341 337 326 314 310 302 296 300 303 300 293 292 295 294 290 285 275 269 267 264 260 254 253 250 246 252 252 250 254 252 250 247 242 244 244 239 237 237 235 233 230 229 229 232 235 235 235 233 230 229 229 227 226 223 220
184 176 170 166 155 143 134 124 119 116 110 107 102 95 91 88 85 84 83 81 81 77 75 70 59 50 38 15 348 339 330 324 318 308 305 303 299 301 301 298 293 290 294 301 300 294 290 289 282 272 267 264 265 263 260 264 262 258 260 256 252 251 248 248 245 237 231 229 229 231 231 232 233 234 236 236 234 234 233 230 226 226 226 225 225
185 178 175 172 164 155 147 139 132 127 120 115 111 105 100 95 90 87 83 81 81 77 72 68 60 46 28 4 333 327 326 320 314 309 307 300 294 291 287 287 293 295 294 298 299 298 302 304 294 284 281 276 275 277 281 280 266 259 267 265 260 260 257 256 256 246 237 231 230 230 231 233 235 236 238 238 237 235 235 233 229 225 223 224 226
185 180 179 176 171 165 158 153 146 140 137 131 127 123 117 111 106 101 97 94 88 78 68 61 55 41 22 358 332 323 324 318 310 308 305 297 290 285 278 276 280 286 292 293 288 289 297 304 300 292 287 288 289 289 290 286 280 285 286 278 272 270 266 267 271 268 252 239 234 233 235 236 237 238 239 240 240 239 236 235 234 228 222 223 226
184 181 181 179 175 173 167 162 158 153 150 145 142 139 132 127 123 118 113 112 108 94 80 70 57 35 17 356 332 317 317 311 299 294 292 288 284 278 274 272 270 272 283 289 285 278 281 289 292 293 299 303 300 296 293 288 288 293 291 284 281 278 275 272 272 273 266 250 240 238 241 241 240 242 244 244 243 244 240 236 236 232 225 223 226
186 182 183 182 179 178 174 170 166 163 160 156 153 149 144 140 134 128 128 130 129 120 104 89 69 38 12 351 333 322 311 297 284 283 284 280 281 279 274 272 270 271 277 282 282 275 277 285 289 293 299 298 295 293 290 284 282 284 284 280 278 278 279 278 273 273 269 259 251 247 247 248 248 248 249 250 247 248 247 240 236 233 229 227 227
189 185 185 186 183 182 179 176 173 170 168 164 162 159 153 148 143 139 139 141 142 138 136 133 120 82 345 323 314 314 309 294 281 279 276 274 279 280 277 275 272 272 274 276 278 278 282 288 288 286 288 291 291 286 283 281 277 276 276 275 274 276 279 277 273 272 269 264 258 253 252 252 252 251 250 252 252 251 251 247 239 235 233 231 229
194 188 189 189 187 186 183 181 179 175 174 171 169 168 163 155 149 148 149 151 151 148 151 157 156 157 237 299 292 291 296 293 288 281 273 271 273 269 267 271 272 271 272 275 278 282 284 286 287 287 289 291 289 285 284 283 278 275 275 273 273 273 274 273 271 270 269 268 263 256 255 252 251 251 250 251 253 251 248 248 244 239 235 233 232
200 194 192 191 190 189 186 184 183 180 178 176 174 173 170 165 160 160 161 160 159 156 158 164 167 174 201 265 284 277 278 285 286 288 286 283 282 277 273 276 278 275 274 277 282 287 288 288 289 289 289 287 286 287 290 287 282 280 277 274 273 272 272 271 269 269 268 269 269 262 257 254 252 252 252 251 251 250 246 244 243 241 238 236 234
205 200 196 192 191 191 189 186 183 181 180 177 177 177 174 172 170 169 169 169 168 167 170 176 190 209 230 259 269 264 274 283 287 291 293 290 291 292 286 280 279 276 275 278 280 283 287 290 291 291 290 289 286 287 289 287 284 282 278 276 274 272 271 268 266 266 264 263 266 265 263 261 256 254 254 253 251 249 249 247 243 240 240 239 237
206 203 197 194 193 192 191 188 184 181 180 178 178 179 178 177 176 172 172 173 173 175 180 190 213 238 247 254 258 264 273 283 289 289 288 289 294 297 292 286 279 276 274 273 273 277 282 286 288 290 291 291 289 287 289 289 286 282 278 276 274 271 270 267 265 264 260 259 260 261 265 269 264 257 255 254 253 251 251 251 247 242 239 238 238
210 205 198 194 193 192 190 188 185 183 182 181 180 179 178 178 176 175 174 175 176 177 185 200 220 233 237 242 249 262 272 279 284 287 287 289 292 291 290 289 286 284 281 277 276 276 278 282 284 286 287 286 287 287 286 288 289 287 282 278 275 271 270 268 265 262 261 263 263 260 263 269 271 264 258 254 254 253 253 253 251 246 241 237 237
212 204 200 196 193 191 190 187 186 186 184 183 181 180 179 177 176 175 174 175 178 180 188 202 212 220 227 236 244 252 263 271 274 279 281 281 282 281 282 283 284 285 284 282 281 280 278 279 281 283 282 280 281 282 281 281 285 288 289 286 280 273 268 265 262 259 258 259 260 258 259 263 266 267 265 261 256 254 254 254 251 249 246 241 237
216 209 205 201 194 189 187 186 187 187 185 183 181 180 179 178 177 175 174 175 179 181 185 191 196 205 216 225 237 245 254 264 269 275 279 279 278 275 274 274 275 277 279 278 279 281 281 281 281 281 281 280 277 277 277 277 277 280 282 283 282 276 267 263 261 259 256 254 254 255 256 258 261 264 268 270 265 259 254 252 250 248 248 246 239
222 218 212 204 196 190 185 184 185 185 183 182 180 179 180 179 177 174 173 176 178 179 180 182 186 192 203 215 228 238 247 256 259 264 268 270 274 275 273 273 271 270 272 273 274 275 276 278 279 279 280 280 278 276 277 274 271 273 276 279 284 286 280 273 269 264 261 259 257 256 258 263 264 262 262 265 268 266 260 254 250 247 246 246 242
226 226 218 200 190 188 184 180 181 181 181 182 181 180 177 176 175 172 171 175 178 179 177 179 185 193 206 221 225 229 248 263 258 258 261 260 261 266 270 273 273 271 269 268 270 271 272 273 274 276 277 276 276 277 277 274 272 276 280 280 280 280 278 275 270 265 263 263 262 258 256 259 259 255 254 257 261 266 267 263 255 250 248 247 244
232 224 205 183 176 182 183 180 179 178 179 183 185 182 176 172 170 167 167 172 177 179 180 184 196 211 227 240 239 247 273 290 282 279 285 277 265 261 263 264 266 270 271 270 268 268 269 271 271 272 272 271 271 273 275 276 278 279 278 275 274 274 273 270 267 263 261 262 263 261 260 257 255 255 252 246 246 255 264 265 258 253 251 249 248
224 197 183 181 185 192 194 187 181 176 179 186 189 187 183 178 167 160 165 173 178 185 187 195 215 231 245 259 259 261 274 283 284 289 292 288 281 275 271 265 260 259 262 265 267 267 267 268 269 269 269 270 269 269 270 273 275 274 273 271 270 270 269 268 267 264 259 260 263 264 264 260 256 259 259 252 250 250 248 247 249 252 255 254 251
212 194 193 198 197 194 192 186 173 167 177 186 188 188 189 186 172 163 170 177 182 191 195 205 231 248 256 265 267 268 268 268 277 288 288 287 287 285 282 276 268 261 255 254 257 261 264 267 268 266 265 268 269 267 266 269 270 272 273 270 268 268 266 266 267 264 260 263 269 266 265 263 260 260 261 262 258 250 244 246 249 256 266 266 259
224 215 205 200 195 187 181 174 168 171 183 187 188 192 195 193 179 170 177 184 189 202 208 216 238 251 258 264 267 270 271 271 276 280 282 289 294 292 288 282 275 270 263 256 253 253 256 261 266 265 264 266 268 267 266 268 270 272 273 271 269 268 266 263 264 265 265 267 269 268 266 263 261 261 259 259 258 250 248 254 258 265 275 277 271
229 223 206 193 187 179 175 175 175 182 191 191 191 195 192 183 175 169 177 190 200 216 223 231 245 252 257 262 267 273 275 275 277 277 281 291 295 294 291 284 277 274 272 267 260 254 251 252 256 260 262 263 265 267 268 268 267 267 269 271 271 270 269 269 269 269 268 265 264 268 268 261 257 260 258 255 254 248 247 258 264 271 277 278 277
221 217 202 188 180 175 175 176 171 174 186 188 188 188 182 176 172 167 176 195 215 232 235 241 250 256 261 263 266 274 277 278 279 278 281 289 294 292 289 284 280 276 271 266 262 256 252 249 251 257 261 262 264 266 266 266 267 268 267 267 268 271 273 275 273 268 263 258 254 257 263 259 254 256 257 252 249 240 243 266 273 275 276 278 277
215 205 192 184 180 173 165 158 151 160 179 186 185 183 180 178 172 169 193 216 230 240 244 249 257 261 265 265 267 274 279 283 285 283 283 288 292 291 288 285 282 278 273 270 265 260 257 256 257 260 261 260 261 261 258 259 266 275 275 267 264 265 267 267 267 263 258 254 247 247 255 257 252 251 254 252 248 243 245 265 276 277 277 281 278
213 198 182 178 176 165 152 147 144 152 171 180 183 183 183 185 178 180 219 239 246 251 257 262 267 269 268 266 268 275 282 286 288 286 287 290 292 292 291 288 286 282 278 276 273 270 267 265 265 265 263 261 261 261 260 259 261 270 276 268 259 258 261 261 262 262 260 254 245 243 251 256 251 250 255 252 244 240 243 251 264 274 279 280 274
216 196 175 168 165 158 156 155 146 143 160 171 177 184 189 191 183 199 244 260 264 267 271 272 274 276 274 271 270 274 278 282 284 284 287 291 292 293 294 292 289 286 283 282 281 279 277 275 273 272 269 267 265 263 262 261 259 260 263 260 255 256 259 260 261 263 262 256 248 243 249 254 250 248 253 253 240 229 230 239 251 266 274 271 262
215 197 175 160 154 152 156 154 143 137 146 155 163 177 193 201 200 229 261 274 275 277 280 282 282 281 280 280 281 281 281 282 283 284 285 285 284 288 294 293 288 285 284 283 282 280 279 276 275 273 272 270 267 262 260 259 257 254 254 255 252 253 256 258 258 260 261 257 248 241 244 251 251 246 245 247 244 222 202 212 236 248 253 252 248
Height
828 829 830 831 831 831 832 833 833 834 834 835 836 837 838 839 839 840 841 841 842 843 844 845 846 847 847 847 847 847 847 848 848 848 849 849 850 849 849 850 850 850 851 851 851 851 851 851 851 851 851 851 851 850 850 850 851 851 852 852 852 853 853 853 854 854 854 854 854 853 853 854 854 854 854 853 853 853 852 851 851 850 850 850 850
828 829 830 831 831 831 831 832 833 834 834 835 836 837 837 838 839 840 840 841 842 842 843 844 845 845 846 846 846 846 847 847 847 848 848 849 849 849 849 849 850 850 850 850 851 851 851 851 851 851 851 851 851 850 850 850 850 850 851 852 852 853 853 853 854 854 854 854 854 854 854 854 854 854 854 854 854 854 853 853 852 851 851 850 850
828 828 829 830 830 831 831 831 832 833 833 834 835 836 837 838 839 840 840 840 841 841 842 843 843 844 845 845 845 845 846 846 847 847 848 848 848 848 848 848 849 849 850 850 850 850 850 850 851 851 851 851 851 851 850 850 850 850 851 852 852 852 853 853 853 854 854 854 854 854 854 854 854 854 855 854 854 854 854 854 853 852 852 851 851
827 828 829 829 830 830 830 830 830 831 832 834 835 836 837 838 838 839 840 840 840 841 841 842 842 843 844 844 844 845 845 846 846 847 847 847 847 848 847 848 848 848 849 849 849 849 849 850 850 851 851 851 851 851 850 850 850 850 851 851 852 852 852 853 853 854 854 854 854 854 854 854 854 855 855 855 855 855 855 854 854 853 853 852 852
826 827 828 829 829 829 829 828 829 830 831 834 835 836 837 837 838 839 839 840 840 840 841 841 842 842 843 843 843 844 845 845 846 846 846 846 847 847 847 847 847 847 847 848 848 848 848 849 849 850 851 851 851 851 850 850 850 850 850 850 851 851 852 852 853 853 854 854 854 854 854 854 854 855 855 855 855 855 855 855 855 854 854 853 853
826 827 827 828 828 829 828 827 828 830 832 834 835 836 837 837 838 838 839 839 840 840 841 841 841 841 841 842 842 843 843 844 845 846 846 846 846 846 846 846 846 846 846 846 846 847 847 848 848 849 850 850 850 850 850 850 850 849 849 850 850 850 851 852 852 852 853 853 854 854 854 854 854 854 855 855 854 855 855 854 855 854 854 854 853
826 826 826 827 827 828 828 828 828 830 831 833 834 835 836 836 836 837 838 839 839 840 840 841 841 840 841 841 841 841 842 843 843 844 845 845 845 845 845 845 845 845 845 845 845 845 846 846 847 848 849 849 849 849 849 849 849 849 849 849 849 849 850 851 851 852 852 853 853 853 853 854 854 854 854 854 854 854 854 854 854 854 854 854 854
824 825 826 826 827 827 827 828 828 829 830 831 834 835 835 835 835 836 837 838 839 839 840 841 841 841 841 841 840 840 841 841 842 843 843 844 844 844 844 844 844 845 844 844 843 844 844 845 846 847 847 848 848 848 848 848 848 848 848 848 848 848 849 850 850 851 851 852 852 853 853 853 853 854 854 854 854 854 854 854 854 854 854 854 854
824 825 825 826 826 826 826 827 828 828 829 831 832 833 834 834 835 836 837 837 838 839 839 840 841 842 841 841 840 840 840 840 841 841 842 843 843 843 843 843 843 843 843 843 843 842 842 843 844 845 846 847 847 847 847 847 847 847 848 848 848 848 848 848 849 850 850 851 851 852 852 852 853 853 853 853 854 853 854 854 854 854 854 854 854
824 824 825 826 826 825 826 827 827 828 829 830 831 832 833 833 834 835 836 836 837 838 839 840 841 841 841 841 840 839 839 839 840 840 841 841 841 842 842 842 842 842 842 842 842 842 841 842 843 843 844 844 845 845 846 846 846 846 847 847 847 847 847 848 848 849 849 850 850 851 851 852 852 852 853 853 853 853 853 853 853 853 853 853 853
824 824 825 825 825 825 825 826 827 827 829 830 831 832 832 833 833 834 835 835 836 836 837 838 839 840 840 840 840 839 838 838 839 839 839 840 840 840 840 841 841 841 841 841 841 841 841 841 841 842 842 842 843 843 844 844 845 845 846 846 846 846 846 846 847 847 848 849 849 850 850 851 851 851 852 852 852 853 853 853 853 853 853 853 853
824 824 825 825 825 825 824 825 826 826 827 828 830 830 831 832 832 833 834 834 834 835 836 837 838 838 839 839 839 838 837 836 837 838 838 838 839 839 840 840 840 840 840 840 840 839 839 840 840 840 841 841 841 841 842 842 843 843 844 844 845 845 845 845 845 846 846 847 848 848 849 850 850 851 851 851 852 852 852 852 852 852 852 852 852
824 824 824 825 825 825 825 825 826 826 827 827 828 829 830 831 831 832 833 833 833 834 835 836 837 838 838 838 837 837 837 837 837 837 837 837 838 838 839 838 838 838 838 838 838 838 838 838 839 839 839 839 839 839 840 840 841 841 842 842 843 843 844 844 844 844 845 846 846 847 848 848 849 850 850 850 851 851 851 851 851 852 852 852 852
825 825 825 825 825 825 825 826 826 826 827 827 828 829 829 830 830 831 831 832 832 833 834 835 836 837 837 838 837 836 836 836 837 837 836 837 837 837 837 837 836 836 836 837 836 837 837 837 837 837 837 837 837 837 838 838 839 839 840 840 841 841 842 842 843 843 844 844 845 845 846 847 847 848 849 849 849 850 850 851 851 851 851 851 851
825 825 825 825 826 826 826 826 826 827 827 827 828 829 829 829 829 830 831 831 831 832 833 833 834 835 837 838 838 836 835 834 835 835 835 836 837 836 836 835 834 834 834 835 835 835 835 835 835 836 836 836 836 836 836 836 837 837 838 838 838 839 839 840 841 841 842 843 843 844 844 845 846 847 847 847 848 848 849 849 849 850 850 850 851
826 826 826 826 827 827 827 827 827 827 828 828 828 829 829 829 829 830 831 831 831 832 832 832 833 835 836 837 838 838 837 835 834 834 834 836 837 837 835 834 833 833 833 833 833 834 834 834 834 834 834 834 834 834 834 835 835 835 836 836 836 837 837 838 839 839 840 840 842 843 843 843 844 845 846 846 846 846 847 847 848 849 849 849 850
827 827 827 827 828 828 828 828 828 828 828 828 829 829 829 829 829 830 830 831 831 832 832 832 833 834 835 836 838 838 837 836 835 834 834 835 837 837 835 834 833 832 832 831 832 831 832 832 832 832 832 832 832 833 833 833 833 833 833 833 834 834 835 835 836 837 838 839 839 840 841 841 842 843 844 844 845 845 845 846 847 848 848 849 849
827 828 828 828 829 829 829 829 829 829 829 829 830 830 830 830 830 830 830 830 831 831 832 832 833 833 834 834 836 836 835 836 837 836 836 836 836 835 835 834 833 832 831 830 830 830 830 830 830 830 830 830 830 830 831 831 831 831 831 831 832 832 832 833 834 835 836 836 837 838 839 839 840 841 842 843 843 843 844 845 845 847 847 848 849
828 829 829 829 830 830 830 830 830 830 830 830 830 831 831 831 831 831 831 831 831 831 832 833 833 833 833 834 834 834 835 836 837 837 837 837 835 835 835 834 833 832 830 829 829 830 830 830 829 829 829 829 829 828 828 828 828 829 829 829 829 829 830 830 831 832 833 834 835 836 837 837 838 838 839 840 841 842 842 843 844 845 846 847 848
829 829 830 830 830 831 831 831 831 831 831 831 831 831 831 832 832 832 832 832 832 832 833 834 834 833 833 833 834 834 834 835 835 836 837 837 836 835 835 834 833 832 831 830 829 830 830 829 829 828 827 828 827 827 826 826 826 826 826 826 827 827 827 827 828 829 830 831 832 833 834 835 835 836 837 838 839 839 840 841 842 843 844 845 846
829 829 830 831 831 832 832 832 832 832 832 832 832 832 832 832 832 832 833 833 833 834 834 834 834 834 834 833 833 833 834 834 835 836 836 837 837 835 835 834 833 832 831 830 830 829 829 829 828 827 826 826 826 825 825 824 824 824 824 824 824 824 825 825 826 826 827 828 829 830 831 832 833 834 835 835 836 837 838 839 840 841 842 843 844
829 830 830 831 831 832 832 832 833 833 833 833 833 833 833 833 833 833 833 834 834 834 835 835 835 835 834 834 833 833 833 833 835 836 836 836 835 834 834 833 832 831 830 829 828 828 828 827 826 825 825 824 824 824 823 823 823 823 823 823 822 822 823 823 823 824 825 825 826 827 828 829 831 832 832 833 834 835 836 836 837 838 839 841 842
830 830 831 831 832 832 832 833 833 833 834 834 834 834 834 834 834 834 835 835 835 835 835 836 836 835 835 835 834 834 835 835 835 837 836 836 835 834 833 832 830 829 828 827 827 827 826 825 824 824 823 822 822 822 821 821 821 821 821 821 821 821 821 821 821 822 822 823 823 824 825 826 828 829 830 830 831 832 833 834 835 836 836 837 839
830 830 831 831 832 832 833 833 833 834 834 834 834 834 835 835 835 836 836 836 836 837 837 836 836 836 835 835 835 835 835 836 836 837 837 837 836 834 832 831 829 827 826 826 825 824 823 822 821 820 820 820 820 820 820 820 819 819 819 820 820 820 820 820 820 820 820 820 821 821 822 823 825 826 827 828 829 830 831 832 833 834 834 835 835
829 830 831 831 832 832 833 833 834 834 834 834 835 835 835 836 836 836 837 837 837 837 837 837 837 837 836 836 836 836 836 836 837 837 837 837 836 834 832 831 830 828 826 824 822 821 819 818 817 817 817 818 818 818 818 818 818 818 818 818 818 818 818 818 818 818 818 818 818 819 820 821 822 823 824 825 826 828 829 830 831 832 833 833 834
828 829 830 831 832 832 833 834 834 834 835 835 835 835 836 836 836 837 837 837 838 838 838 838 837 837 837 837 837 837 837 836 837 836 836 836 835 834 832 831 830 828 825 822 820 818 816 815 815 815 816 816 816 817 817 817 816 816 816 816 816 816 816 816 816 816 816 816 816 816 817 818 819 820 820 822 823 824 826 827 828 829 830 831 832
827 828 829 830 831 832 833 834 834 835 835 835 836 836 836 837 837 837 837 838 838 839 839 838 838 838 838 838 837 837 837 837 836 836 836 835 834 834 833 831 829 827 825 823 820 817 815 815 814 814 815 815 815 816 815 816 815 815 815 815 814 814 814 814 814 813 813 813 814 814 814 815 816 817 817 818 820 821 822 823 825 826 827 828 829
826 827 828 829 830 831 833 833 834 835 835 836 836 837 837 837 838 838 838 839 839 839 840 840 840 839 839 839 838 838 838 837 836 836 835 835 834 834 833 832 830 827 824 823 821 818 816 815 814 814 814 814 815 815 815 815 814 814 814 813 813 813 813 813 812 812 811 811 811 811 812 812 813 814 815 815 817 818 819 820 822 823 824 825 826
824 825 827 828 829 830 832 832 833 834 835 836 836 836 837 837 838 838 838 839 839 840 840 840 840 840 840 840 839 839 838 837 837 836 835 834 834 833 832 832 831 828 825 823 821 819 818 817 815 814 814 814 814 814 814 814 813 813 813 812 812 811 811 811 810 810 810 810 810 810 810 810 811 811 812 813 814 814 816 817 818 819 821 823 824
822 824 825 827 828 829 831 831 832 833 834 835 835 836 836 837 837 838 838 838 839 839 840 840 841 841 840 840 840 839 838 838 837 836 835 834 833 833 832 831 830 829 826 824 821 819 819 818 817 815 814 815 815 814 814 813 812 812 812 811 810 810 809 809 809 809 809 808 808 808 808 809 809 809 810 810 811 811 812 814 815 816 818 819 821
820 822 823 825 827 828 829 830 831 832 833 834 835 835 836 836 837 837 837 838 839 839 840 840 840 840 840 840 840 839 838 838 837 836 835 834 833 832 831 830 829 828 827 825 822 819 818 818 817 817 816 815 815 814 813 812 811 810 810 809 809 808 807 807 806 806 807 807 807 806 806 807 807 807 807 807 808 808 809 810 811 813 814 815 817
817 819 821 823 824 826 827 828 829 831 832 833 834 834 835 835 836 836 836 837 838 838 839 839 839 839 839 839 839 839 838 837 836 836 835 834 833 832 831 830 829 828 827 825 822 819 818 818 817 816 816 815 814 813 812 811 810 809 808 808 807 806 806 805 804 804 804 804 804 804 804 804 804 804 804 804 805 805 806 806 807 809 810 811 812
815 817 819 820 822 823 825 826 827 828 830 831 832 833 834 834 835 835 835 836 836 837 837 837 838 838 838 838 838 838 837 837 836 835 834 833 832 831 830 829 828 827 826 824 822 819 818 818 817 815 815 814 813 811 810 809 808 807 806 806 805 804 804 803 802 801 801 801 801 801 801 801 801 802 802 802 802 802 802 803 803 804 806 807 808
813 815 816 818 820 821 822 823 825 826 827 828 830 831 832 832 833 833 834 834 835 835 836 836 836 837 837 837 836 836 836 836 835 834 833 833 832 830 830 829 828 827 826 824 822 820 818 817 816 815 814 812 811 810 809 808 806 806 805 804 803 803 802 801 800 799 798 799 799 799 798 798 798 799 799 799 799 799 799 799 800 800 802 803 804
810 812 814 815 817 819 820 821 822 823 825 826 827 828 829 830 831 831 832 833 833 833 834 835 835 835 835 835 835 835 834 834 834 833 833 832 831 830 829 829 828 827 826 825 823 821 818 816 815 814 812 811 810 809 808 806 805 804 803 802 801 800 799 798 798 797 796 796 796 796 796 796 796 796 796 796 796 796 796 796 796 796 797 799 799
807 809 811 812 814 816 817 819 820 821 822 823 825 826 827 828 828 829 830 831 831 832 832 833 833 833 834 833 833 833 833 833 832 832 831 831 830 829 829 828 827 826 825 824 823 821 818 816 814 812 811 809 808 807 806 804 803 802 800 799 798 797 797 796 795 794 793 792 793 794 793 793 793 792 792 793 793 792 792 792 793 793 793 794 795
804 806 807 808 810 812 814 815 817 818 819 820 822 823 824 825 826 827 828 829 829 830 830 831 832 832 832 832 832 832 832 831 831 831 830 830 830 829 828 827 826 825 824 823 821 820 818 815 813 811 810 808 806 805 804 803 801 800 798 797 796 795 794 793 792 792 791 790 790 790 790 790 790 789 789 789 789 789 789 789 789 789 789 790 790
801 802 803 804 805 807 810 812 814 816 817 818 819 821 822 823 824 825 826 827 827 828 828 829 830 830 831 831 831 831 830 830 830 830 829 829 829 828 827 826 825 824 823 822 820 818 816 814 812 810 808 807 805 803 802 801 800 798 797 795 794 792 791 790 789 789 788 787 787 787 787 787 787 786 786 786 786 786 786 786 786 786 786 786 787
798 798 799 801 802 804 807 809 812 813 814 815 817 818 819 820 821 822 823 824 825 825 826 826 827 828 829 829 829 829 829 829 829 828 828 828 827 827 826 825 824 823 822 820 819 817 815 812 810 809 806 805 803 801 800 800 799 797 796 793 791 789 788 787 786 786 785 785 784 784 784 784 784 783 783 783 783 783 782 782 782 782 782 782 783
796 796 797 799 801 802 802 805 808 810 811 813 813 815 817 818 819 819 820 822 823 823 824 824 825 826 826 827 828 828 828 828 827 827 827 826 826 825 825 824 823 822 821 819 817 815 813 810 808 807 805 803 801 799 799 798 797 795 794 792 790 788 787 786 785 784 783 782 781 781 781 780 780 780 780 780 780 779 779 779 779 779 779 779 779
792 793 795 796 798 799 799 800 804 806 808 810 810 812 814 815 816 817 819 820 821 822 822 823 824 825 825 826 826 826 826 826 826 825 825 825 824 823 823 822 822 821 819 818 816 814 811 809 806 805 803 801 799 798 797 796 795 794 793 792 790 788 787 785 783 782 781 780 779 778 778 778 778 777 777 777 777 776 776 776 776 776 776 776 776
790 791 792 793 794 797 800 799 800 802 804 806 808 809 811 813 814 815 817 818 820 820 821 822 822 823 824 824 824 824 824 823 823 823 823 822 822 821 821 820 820 819 818 816 814 812 810 807 805 803 801 799 798 797 795 794 794 793 792 791 789 787 786 783 781 780 779 778 777 776 775 775 775 775 774 774 774 774 774 774 773 773 773 773 773
788 789 789 790 791 795 799 799 798 799 801 803 805 807 809 811 813 814 815 817 819 819 819 820 821 822 822 823 823 822 821 821 821 820 820 819 819 818 818 817 817 817 816 815 813 811 809 806 804 802 799 797 797 796 795 793 793 792 791 790 788 786 784 781 779 777 777 776 776 774 773 773 773 773 772 772 772 772 773 772 771 770 770 770 770
788 787 787 788 789 792 796 798 798 799 801 802 804 807 809 810 811 812 814 816 817 818 818 818 819 820 820 821 821 820 820 819 819 818 817 816 815 815 814 814 813 813 812 812 811 810 808 805 803 801 798 796 795 794 794 793 791 790 789 788 787 785 783 781 778 777 775 775 775 774 771 771 771 771 770 770 770 770 769 769 769 768 768 768 767
787 786 786 787 788 789 791 793 795 797 800 802 804 807 808 809 810 812 814 815 815 816 816 816 817 818 818 819 818 818 818 817 816 816 815 815 813 812 811 810 809 808 807 807 807 807 806 804 802 799 797 796 794 793 793 792 791 790 788 787 785 784 782 780 778 776 775 775 775 773 770 769 769 769 767 767 768 768 767 767 767 766 766 766 765
784 784 784 785 787 788 789 791 793 795 798 800 803 806 807 808 809 811 813 814 814 815 815 815 816 816 816 817 816 816 816 815 814 814 813 813 811 810 809 807 805 804 803 803 802 802 802 802 800 797 796 795 793 792 792 791 790 789 788 786 785 783 781 778 776 775 774 774 774 772 768 767 767 766 764 764 766 765 764 764 765 764 764 763 763
781 782 783 784 785 786 788 791 793 795 797 800 803 805 806 807 809 810 812 812 813 814 814 814 814 814 814 814 814 813 813 812 812 811 811 810 809 807 806 804 802 801 800 799 799 798 798 797 795 794 794 793 792 791 790 790 789 788 786 785 784 783 781 778 775 774 772 772 772 771 766 764 765 764 762 762 763 763 763 762 762 762 762 761 760
779 779 781 782 784 786 788 791 793 795 798 801 803 804 805 807 808 809 810 811 812 812 812 812 812 812 812 812 811 811 810 810 809 808 808 807 806 804 802 800 799 798 796 796 795 794 793 792 791 790 789 788 788 787 787 787 786 785 785 783 782 782 780 776 773 771 769 768 768 768 764 762 762 761 759 759 760 760 761 761 759 759 760 759 758
777 777 778 781 784 786 788 791 793 796 799 801 803 803 804 805 806 807 809 810 810 810 810 810 810 810 810 809 809 809 808 807 807 806 805 804 803 801 799 797 796 794 793 792 791 789 789 788 787 786 785 784 783 782 783 783 783 784 784 780 779 779 776 772 769 767 765 764 764 764 762 758 758 758 757 756 757 757 759 759 757 757 757 757 756
775 776 777 780 783 785 787 789 793 796 798 800 801 802 803 804 805 806 808 808 808 808 808 808 808 807 807 806 806 806 805 804 804 803 803 802 801 799 797 794 793 791 789 789 787 786 785 784 783 782 781 781 780 779 779 779 779 781 780 777 777 777 772 768 766 764 762 760 760 761 759 755 755 756 754 754 753 753 755 756 755 755 755 754 754
773 775 777 779 781 784 786 789 791 793 795 797 799 801 802 803 803 805 807 806 806 806 806 806 805 805 804 803 802 802 801 801 801 800 799 799 798 797 795 793 790 788 787 786 785 783 782 781 780 779 777 777 776 775 774 774 774 776 775 773 774 773 768 765 765 763 759 755 756 758 756 753 753 753 752 751 750 749 751 753 752 753 753 752 752